Starlink 30374

operational
NORAD ID: 57809 Int'l Des: 2023-138 Owner: SPXS Country: US Constellation: starlink
LEOCIRCULAR

Über Starlink 30374

Beschreibung wird geladen...

Live-Position

3D-Globus wird geladen...

Nächste Überflüge

Höhenverlauf

Altitude vs Time

uPlot chart will show altitude changes over time

Zweizeiliger Elementsatz

1 57809U 23138B 25306.46211851 -.00007111 00000-0 -51129-3 0 9993
2 57809 43.0016 207.7388 0000612 297.9548 62.1233 15.02578681119576
Epoch: 2. Nov. 2025 • Age: 22 hours

Aktueller Status

Höhe 569.4 km
Geschwindigkeit 7.58 km/s
Subsatellitenpunkt -36.96°S, 30.82°W
Startdatum 9. Sept. 2023
Alter 2.1 years
Typ internet

Technische Details

Klassifizierung Payload
Masse 730.00 kg
Trockenmasse 700.00 kg
Gesamtmasse 730.00 kg
Länge 0.30 m
Durchmesser 4.10 m
Spannweite 29.00 m
Form Box + pan
Hersteller SPXS
Bus-Typ Starlink V2M
Phasenstatus In Orbit
Besitzer/Staat SPXS/US

Große Konstellationen

Loading constellations...